sat.trackr.live / text

‹ back to catalog

ASTROSAT

NORAD 40930 · 2015-052A

PAYLOAD ACTIVE UNKNOWN

§ Identity

Operator
Country
IND
Launch date
2015-09-28
Launch site
SRILR
Launch vehicle
Mass (kg)
RCS (m²)
4.88

Purposes: science

External: N2YO · Heavens-Above · Gunter

§ Orbital elements

Epoch: 2026-09-20T00:13:53.722848Z

Period
97.12 min
Inclination
5.9956°
Eccentricity
0.0008413
Mean motion
14.82648468 rev/d
Perigee alt
615.1 km
Apogee alt
626.9 km
Semi-major
6,999.1 km
B*
7.9006e-5
RAAN
192.7343°
Arg perigee
306.5141°
Mean anomaly
53.4213°
Rev number
59,392

§ Raw data

ASTROSAT1 40930U 15052A   26263.00964957  .00001323  00000+0  79006-4 0  99922 40930   5.9956 192.7343 0008413 306.5141  53.4213 14.82648468593924

JSON: /api/v1/satellites/40930 · /tle

For live sub-satellite position, see the globe view (requires WebGL).

§ Visibility from observer

Set your observer location to see the next 7 days of passes ≥ 10°. The values pass through the URL so the page stays shareable.

No JS? Fill the form by hand. The geolocation button needs JavaScript.